COSMOS 1275 DEB, 18601

Orbit data source: Space-Track

COSMOS 1275 DEB, 18601 is space debris in LEO originally from a launch on Thu, 04 Jun 1981 UTC launched from the Plesetsk Missile And Space Complex (PKMTR). Debris objects in space refer to the collection of defunct objects orbiting the Earth. Examples of debris include non-operational satellites, rocket bodies, and fragments generated from explosions, collisions, or faulty payload assembly.

Loading next visibility...
Identifier
18601, 1981-053LW
Orbit
LEO
Country
Flag of CISCIS
Related business
Manufacturer
Unknown
Mission
Spacecraft
Bus & Motor
Unknown
Mass
Unknown
Launch date (UTC)
1981-06-04 (45 years ago)
Launch vehicle
Unknown
Launch site
Plesetsk Missile And Space Complex (PKMTR)
Object type
Payload
Rocket body
Debris
Shape & HBR
Unknown shape, 0.1 m
Radar Cross Section
Small (<0.1 m²)

Expand to show TLE details & history
Last TLE update: 13 hours ago

TLE from 13 hours ago
0 COSMOS 1275 DEB
1 18601U 81053LW  26034.20904635  .00004281  00000-0  18949-2 0  9995
2 18601  82.7882 126.3848 0055999 178.1675 211.3589 14.22146521962102
Epoch: 2026-02-03T05:01Z
TLE epoch observation values (Epoch: 2026-02-03T05:01:01.604Z)
Latitude
28.98777°
Longitude
-78.26628°
Altitude
856.217 km
Speed
7.409 km/s
True Right ascension
08h 41m 32s
True Declination
28° 50' 39"
Sunlit
Object was in full shadow at epoch
Visualization orbit readout
Latitude
Unknown
Longitude
Unknown
Altitude
Unknown
Speed
Unknown
Apparent Right ascension
Unknown
Apparent Declination
Unknown
Sunlit
N/A
Visualization observer readout
Local Sidereal Time
20:14:19
Azimuth
Unknown
Elevation
Unknown
Doppler factor
Unknown
Orbital elements
Apogee altitude
855.474 km
Perigee altitude
774.91 km
Semi-major axis
7,193.329 km
Eccentricity
0.0056
Inclination
82.7882°
RAAN
126.3848°
Arg. of periapsis
178.1675°
True anomaly
211.02695°
Mean anomaly
211.3589°
Eccentric anomaly
211.19273°
Mean motion
3.55753 °/min
Orbital period
101.19 mins
BSTAR
0.0018949
Loading maneuver chart data...
Computing Atmospheric mass density...
Loading historical data...
Loading historical data...
Loading historical data...
Loading historical data...
Loading historical data...
Loading historical data...
Loading historical data...

Documentation

Showing up to 5 results
|